User: anonymous   Login
Location: Unspecified
(0.0000°N, 0.0000°E)
Time: 12:06:30
(UTC+00:00)
Language:

SEEDS - Orbit

View from above orbital plane
View from above orbital plane
View from above satellite
View from above satellite

Ground track
Ground track

The orbit data is extracted from the following two-line orbital elements,

1 32791U 08021J   19141.98376019  .00000219  00000-0  27635-4 0  9991
2 32791  97.5283 148.9498 0012620 336.9786  23.0865 14.90804066599986
Epoch (UTC): 21 May 2019 23:36:36
Eccentricity: 0.0012620
inclination: 97.5283°
perigee height: 586 km
apogee height: 604 km
right ascension of ascending node: 148.9498°
argument of perigee: 336.9786°
revolutions per day: 14.90804066
mean anomaly at epoch: 23.0865°
orbit number at epoch: 59998

The dashed part of the orbit path shows where the satellite is in the earth's shadow,  

DLR